Satellite-Ground Cal/Val Region Overpasses Predictions

Prediction of Satellite NPP Overpassing Cal/Val Region: PacNW

Region Location: (Latitude: 10.00, Longitude: 139.50) to (Latitude: 22.70, Longitude: 165.60).

Table of predicted overpasses for the next 14.0 days since TLE Epoch: 8/3/2018
Interval Starting Time Starting Location Ending Time Ending Location
1 08/04/2018 02:45:38 ( 10.04, 158.37) 08/04/2018 02:49:13 ( 22.66, 155.37)
2 08/04/2018 15:17:31 ( 22.69, 155.62) 08/04/2018 15:21:07 ( 10.01, 152.60)
3 08/05/2018 02:26:37 ( 10.02, 163.13) 08/05/2018 02:30:13 ( 22.70, 160.11)
4 08/05/2018 14:58:31 ( 22.65, 160.36) 08/05/2018 15:02:06 ( 10.03, 157.36)
5 08/06/2018 02:10:21 ( 19.75, 165.60) 08/06/2018 02:11:11 ( 22.68, 164.87)
6 08/06/2018 03:49:05 ( 10.00, 142.52) 08/06/2018 03:52:40 ( 22.63, 139.51)
7 08/06/2018 14:39:29 ( 22.67, 165.12) 08/06/2018 14:43:04 ( 10.05, 162.12)
8 08/06/2018 16:20:59 ( 22.67, 139.75) 08/06/2018 16:21:15 ( 21.73, 139.51)
9 08/07/2018 03:30:05 ( 10.04, 147.26) 08/07/2018 03:33:40 ( 22.67, 144.26)
10 08/07/2018 16:01:58 ( 22.68, 144.51) 08/07/2018 16:05:34 ( 10.00, 141.49)
11 08/08/2018 03:11:04 ( 10.03, 152.02) 08/08/2018 03:14:39 ( 22.65, 149.02)
12 08/08/2018 15:42:57 ( 22.64, 149.25) 08/08/2018 15:46:32 ( 10.02, 146.25)
13 08/09/2018 02:52:02 ( 10.01, 156.78) 08/09/2018 02:55:38 ( 22.69, 153.76)
14 08/09/2018 15:23:56 ( 22.66, 154.01) 08/09/2018 15:27:31 ( 10.04, 151.01)
15 08/10/2018 02:33:02 ( 10.05, 161.53) 08/10/2018 02:36:37 ( 22.68, 158.52)
16 08/10/2018 15:04:54 ( 22.68, 158.77) 08/10/2018 15:08:29 ( 10.06, 155.77)
17 08/11/2018 02:14:51 ( 13.04, 165.60) 08/11/2018 02:17:35 ( 22.66, 163.28)
18 08/11/2018 03:55:30 ( 10.04, 140.91) 08/11/2018 03:57:13 ( 16.09, 139.51)
19 08/11/2018 14:45:53 ( 22.69, 163.53) 08/11/2018 14:49:29 ( 10.01, 160.52)
20 08/12/2018 03:36:29 ( 10.03, 145.67) 08/12/2018 03:40:04 ( 22.65, 142.67)
21 08/12/2018 14:30:03 ( 11.44, 165.60) 08/12/2018 14:30:27 ( 10.03, 165.28)
22 08/12/2018 16:08:22 ( 22.65, 142.90) 08/12/2018 16:11:57 ( 10.03, 139.90)
23 08/13/2018 03:17:27 ( 10.01, 150.43) 08/13/2018 03:21:03 ( 22.69, 147.41)
24 08/13/2018 15:49:21 ( 22.66, 147.66) 08/13/2018 15:52:56 ( 10.04, 144.66)
25 08/14/2018 02:58:27 ( 10.06, 155.18) 08/14/2018 03:02:02 ( 22.68, 152.17)
26 08/14/2018 15:30:19 ( 22.68, 152.42) 08/14/2018 15:33:55 ( 10.00, 149.41)
27 08/15/2018 02:39:25 ( 10.04, 159.94) 08/15/2018 02:43:00 ( 22.66, 156.93)
28 08/15/2018 15:11:18 ( 22.69, 157.18) 08/15/2018 15:14:54 ( 10.02, 154.17)
29 08/16/2018 02:20:24 ( 10.03, 164.70) 08/16/2018 02:23:59 ( 22.65, 161.69)
30 08/16/2018 14:52:18 ( 22.65, 161.93) 08/16/2018 14:55:53 ( 10.03, 158.92)
31 08/17/2018 03:42:52 ( 10.02, 144.08) 08/17/2018 03:46:28 ( 22.70, 141.06)
32 08/17/2018 14:34:32 ( 18.21, 165.59) 08/17/2018 14:36:51 ( 10.05, 163.68)


NCC Satellite Cal/Val Overpasses Prediction Service
